De Queen, AR

6:11 AM CDT on May 26, 2020 (GMT -0500)
Helms Sevier County

Weather History for KDEQ - November, 2019

Change the Weather History Date:

Friday, November 1, 2019

  Actual Average Record
Temperature  
Mean Temperature 44 °F 58 °F  
Max Temperature 57 °F 71 °F 88 °F (1984)
Min Temperature 29 °F 45 °F 21 °F (1993)
Degree Days  
Heating Degree Days 22 8  
Month to date heating degree days 21 8  
Since 1 July heating degree days 195 141  
Cooling Degree Days 0 1  
Month to date cooling degree days 0 1  
Year to date cooling degree days 2313 1935  
Moisture  
Dew Point 30 °F    
Average Humidity 78    
Maximum Humidity 96    
Minimum Humidity 30    
Precipitation  
Precipitation 0.00 in 0.16 in 1.64 in (1974)
Month to date precipitation 0.00 0.16  
Year to date precipitation 46.73 39.88  
Snow  
Snow 0.00 in - - ()
Month to date snowfall 0.0  
Since 1 July snowfall 0.0  
Since 1 September snowfall 0.0  
Snow Depth 0.00 in    
Sea Level Pressure  
Sea Level Pressure 30.34 in    
Wind  
Wind Speed 1 mph ()    
Max Wind Speed 10 mph    
Max Gust Speed 14 mph    
Visibility 5.5 miles    
Events Fog    
T = Trace of Precipitation, MM = Missing Value Source: Averaged Metar Reports

Daily Weather History Graph

Daily Weather History Graph

Search for Another Location

Airport or City:

Astronomy

Nov. 01, 2019 Rise Set
Actual Time 7:36 AM CDT 6:24 PM CDT
Civil Twilight 7:11 AM CDT 6:50 PM CDT
Nautical Twilight 6:41 AM CDT 7:20 PM CDT
Astronomical Twilight 6:12 AM CDT 7:49 PM CDT
Moon 12:16 PM CDT (11/1) 10:23 PM CDT (11/1)
Length of Visible Light 11h 39m
Length of Day
10h 47m
Waxing Crescent, 24% of the Moon is Illuminated
Nov 1
Waxing Crescent
Nov 4
First Quarter
Nov 12
Full
Nov 19
Last Quarter
Nov 26
New

Hourly Weather History & Observations

Time (CDT) Temp. Windchill Dew Point Humidity Pressure Visibility Wind Dir Wind Speed Gust Speed Precip Events Conditions
12:12 AM 32.0 °F - 28.9 °F 88% 30.37 in 8.0 mi Calm Calm - N/A   Clear
12:23 AM 32.0 °F - 28.9 °F 88% 30.37 in 1.5 mi Calm Calm - N/A   Partly Cloudy
12:26 AM 32.0 °F - 28.9 °F 88% 30.37 in 0.8 mi Calm Calm - N/A   Mist
12:53 AM 30.9 °F - 28.9 °F 92% 30.38 in - Calm Calm - N/A   Partly Cloudy
1:06 AM 30.0 °F - 28.0 °F 92% 30.37 in - Calm Calm - N/A   Mostly Cloudy
1:53 AM 30.0 °F - 28.9 °F 96% 30.38 in 0.2 mi Calm Calm - N/A Fog Light Freezing Fog
2:25 AM 30.0 °F - 28.0 °F 92% 30.37 in - Calm Calm - N/A   Overcast
2:53 AM 30.0 °F - 27.0 °F 88% 30.37 in - Calm Calm - N/A   Mostly Cloudy
3:19 AM 30.9 °F - 28.9 °F 92% 30.36 in 0.2 mi Calm Calm - N/A Fog Light Freezing Fog
3:53 AM 30.0 °F - 28.9 °F 96% 30.36 in 0.2 mi Calm Calm - N/A Fog Light Freezing Fog
4:22 AM 30.9 °F - 28.9 °F 92% 30.36 in - Calm Calm - N/A   Overcast
4:30 AM 30.9 °F - 28.9 °F 92% 30.36 in 0.2 mi Calm Calm - N/A Fog Light Freezing Fog
4:53 AM 30.9 °F - 28.9 °F 92% 30.37 in 0.2 mi Calm Calm - N/A Fog Light Freezing Fog
5:22 AM 30.0 °F - 28.0 °F 92% 30.37 in - Calm Calm - N/A   Partly Cloudy
5:41 AM 30.0 °F - 27.0 °F 88% 30.38 in - Calm Calm - N/A   Mostly Cloudy
6:18 AM 30.0 °F - 28.0 °F 92% 30.38 in 0.2 mi Calm Calm - N/A Fog Light Freezing Fog
6:53 AM 30.0 °F - 28.0 °F 92% 30.38 in 0.2 mi Calm Calm - N/A Fog Light Freezing Fog
7:53 AM 30.0 °F - 28.0 °F 92% 30.38 in 0.2 mi Calm Calm - N/A Fog Light Freezing Fog
8:23 AM 32.0 °F - 30.0 °F 92% 30.39 in 1.0 mi Calm Calm - N/A   Mist
8:30 AM 32.0 °F - 30.0 °F 92% 30.39 in - Calm Calm - N/A   Scattered Clouds
8:53 AM 32.0 °F 28.7 °F 30.0 °F 92% 30.39 in 10.0 mi ESE 3.5 mph - N/A   Clear
9:53 AM 37.9 °F - 35.1 °F 89% 30.39 in - Calm Calm - N/A   Clear
10:53 AM 46.0 °F 42.5 °F 32.0 °F 58% 30.39 in 10.0 mi SSE 6.9 mph - N/A   Clear
11:53 AM 50.0 °F - 28.0 °F 43% 30.38 in 10.0 mi South 8.1 mph - N/A   Clear
12:53 PM 52.0 °F - 28.0 °F 40% 30.34 in 10.0 mi North - - N/A   Clear
1:53 PM 55.0 °F - 28.0 °F 35% 30.30 in 10.0 mi WSW 6.9 mph - N/A   Clear
2:53 PM 55.9 °F - 28.0 °F 34% 30.26 in 10.0 mi Variable 4.6 mph - N/A   Clear
3:53 PM 57.0 °F - 27.0 °F 32% 30.24 in 10.0 mi SSE 5.8 mph - N/A   Clear
4:53 PM 57.0 °F - 27.0 °F 32% 30.24 in 10.0 mi Variable 4.6 mph - N/A   Clear
5:53 PM 55.9 °F - 28.9 °F 36% 30.22 in 10.0 mi SSE 3.5 mph - N/A   Clear
6:53 PM 46.9 °F - 36.0 °F 66% 30.25 in 10.0 mi Calm Calm - N/A   Clear
7:53 PM 42.1 °F - 36.0 °F 79% 30.27 in 10.0 mi Calm Calm - N/A   Clear
8:53 PM 39.9 °F - 36.0 °F 86% 30.29 in - Calm Calm - N/A   Clear
9:53 PM 37.0 °F - 34.0 °F 89% 30.31 in - Calm Calm - N/A   Clear
10:53 PM 36.0 °F - 34.0 °F 93% 30.32 in 10.0 mi Calm Calm - N/A   Clear
11:53 PM 35.1 °F - 33.1 °F 92% 30.32 in - Calm Calm - N/A   Clear